Regional Weather Roundup
Issued by NWS

Home | Current Version | Previous Version | Graphics & Text | Print | Product List | Glossary On
Versions: 1 2 3 4 5 6 7 8 9 10 11 12 13 14 15 16 17 18 19 20 21 22 23 24 25 26 27 28 29 30 31 32 33 34 35 36 37 38 39 40 41 42 43 44 45 46 47 48 49 50
238
ASUS45 KBOU 180107
RWRCO

WEATHER ROUNDUP FOR COLORADO
NATIONAL WEATHER SERVICE DENVER/BOULDER CO
600 PM MST TUE JAN 17 2017

NOTE: "FAIR" INDICATES FEW OR NO CLOUDS BELOW 12000 FEET WITH NO
SIGNIFICANT WEATHER AND/OR OBSTRUCTIONS TO VISIBILITY.

COZ001>005-013-030-031-180200-
...NORTHWEST COLORADO...

CITY           SKY/WX    TMP DP  RH WIND       PRES   REMARKS
CRAIG          FOG       17  13  84 E7        30.21R VSB 1/2 WCI   8
HAYDEN         CLOUDY    16  12  86 CALM      30.19S VSB 1/4
MEEKER         FAIR      22  18  85 NE3       30.18R
MOUNT WERNER   NOT AVBL
STEAMBOAT SPGS FAIR      17  15  89 CALM      30.18R
WALDEN           N/A    N/A N/A N/A CALM      30.18R VSB 1/4
$$

COZ006>008-011-180200-
...WEST CENTRAL VALLEYS...

CITY           SKY/WX    TMP DP  RH WIND       PRES   REMARKS
GRAND JUNCTION FAIR      36  30  79 NW5       30.16R
MONTROSE       CLOUDY    40  31  70 NW3       30.18R
EAGLE          CLEAR     27  21  80 CALM      30.19R
RIFLE          FAIR      32  25  75 S6        30.17R WCI  26
DELTA          CLOUDY    44  32  62 SW3       30.17S
NUCLA          CLOUDY    39  30  70 NW5       30.18S
$$

COZ017>023-064>068-180200-
...SOUTHWEST COLORADO...

CITY           SKY/WX    TMP DP  RH WIND       PRES   REMARKS
DURANGO        CLOUDY    37  30  75 SW5       30.12R
CORTEZ         CLOUDY    41  34  76 W5        30.14R
PAGOSA SPRINGS CLOUDY    35  33  92 CALM      30.13R
TELLURIDE      CLOUDY    30  24  78 W7        30.16S WCI  23
WOLF CREEK PAS   N/A     18  18 100 CALM      30.18F
$$

COZ009-010-012-014-032>034-037-058>063-180200-
...CENTRAL COLORADO...

CITY           SKY/WX    TMP DP  RH WIND       PRES   REMARKS
ASPEN          FAIR      29  22  75 S3        30.15R
BUENA VISTA    FAIR      17  13  84 W3        30.10R
COPPER MTN     FAIR      23  18  80 MISG      30.17S
BERTHOUD PASS  NOT AVBL
COTTONWOOD PAS FAIR      32  19  59 W8        30.12R WCI  25
GUNNISON       FOG       16  16 100 E5        30.18R VSB 1   WCI   9
KREMMLING      FAIR      23  19  86 CALM      30.19S
LEADVILLE      FAIR      23  10  57 N14       30.12R WCI  11
MONARCH PASS   CLOUDY    19  18  93 MISG      30.25R
SALIDA         FAIR      35  25  67 SW7       30.16R WCI  29
SUNLIGHT       FAIR      19  18  93 CALM      30.21R FOG
WILKERSON PASS FAIR      25  10  54 NE7       30.15S WCI  17
$$

COZ069>075-180200-
...SAN LUIS VALLEY/SANGRE DE CRISTO MOUNTAINS...

CITY           SKY/WX    TMP DP  RH WIND       PRES   REMARKS
ALAMOSA        MOCLDY    27  25  92 CALM      30.11S
LA VETA PASS   CLOUDY    23  21  93 NE22      30.09S FOG     WCI   8
SAGUACHE       FAIR      25  23  93 N6        30.12S WCI  18
$$

COZ035-036-038>040-180200-
...NORTHERN COLORADO FRONT RANGE...

CITY           SKY/WX    TMP DP  RH WIND       PRES   REMARKS
DENVER INTL AP FAIR      35  26  69 SE3       30.02R
DMNS CITY PARK   N/A     35  27  72 E13       30.03S WCI  26
AURORA         PTCLDY    31  18  57 S5        30.03R WCI  26
FRONT RANGE AP CLEAR     28  25  86 SE6       30.03R WCI  22
ERIE MUNI ARPT FAIR      26  23  88 CALM      30.03R
BOULDER MUN AP FAIR      36  32  87 SW3       30.02S
CENTENNIAL     FAIR      30  15  53 SW6       30.02R WCI  24
BROOMFIELD     CLEAR     32  25  74 W5        30.03R WCI  27
FORT COLLINS   FAIR      34  25  69 S7        30.02S WCI  28
LONGMONT       FAIR      29  23  80 W3        30.05R
$$

COZ041-046-047-076>085-087-088-180200-
...PIKES PEAK/PALMER DIVIDE AND SOUTHERN FOOTHILLS...

CITY           SKY/WX    TMP DP  RH WIND       PRES   REMARKS
COLO. SPRINGS  FAIR      36  27  69 CALM      30.04R
A. F. ACADEMY  FAIR      32  23  71 N6        30.03R WCI  26
SCHRIEVER AFB  NOT AVBL
ELLICOTT       FAIR     N/A N/A N/A CALM      30.02S
FALCON         FAIR      31  25  80 NW3       30.05S
FORT CARSON    CLEAR     36  32  87 S1        30.04R
LIMON          FAIR      25  24  96 N7        30.02S WCI  17
MONUMENT HILL  FAIR      27  12  54 CALM      30.06R
TRINIDAD       FAIR      29  25  85 SW6       30.02S WCI  23
$$

COZ042>045-048>051-090-091-180200-
...NORTHEAST COLORADO...

CITY           SKY/WX    TMP DP  RH WIND       PRES   REMARKS
GREELEY ARPT   FAIR      37  28  70 SE5       30.03R
AKRON          FAIR      29  24  82 SW8       30.01S WCI  21
BURLINGTON     FAIR      33  30  88 W7        30.03F WCI  27
WRAY           NOT AVBL
STERLING       FAIR      28  27  93 SW5       30.01R WCI  23
HOLYOKE        FAIR      30  27  86 SW8       30.01F WCI  23
FORT MORGAN    FAIR      32  26  81 W5        30.02S WCI  27
$$

COZ086-089-092>099-180200-
...SOUTHEAST COLORADO...

CITY           SKY/WX    TMP DP  RH WIND       PRES   REMARKS
PUEBLO         FOG       31  30  96 E5        30.02S VSB 1/4 WCI  26
LA JUNTA       FAIR      26  24  92 SW7       30.04R WCI  18
LAMAR          FAIR      31  28  89 SW3       30.03R
SPRINGFIELD      N/A     34  30  85 S7        30.04R WCI  28
$$




USA.gov is the U.S. government's official web portal to all federal, state and local government web resources and services.